EW7328 Weather Reports


time (UTC)temp
F
wind
direction
speed
knots
gust
knots
rain 1hr
in
rain 24hr
in
rain mn
in
humidity
%
barometer
mb
20260508002851 71 241 2.6 8.7 0.00 0.00 0.00 69 1013.1
20260508002356 71 243 2.6 7.8 0.00 0.00 0.00 69 1013.1
20260508002351 71 214 3.5 8.7 0.00 0.00 0.00 69 1013.1
20260508001355 71 214 3.5 5.2 0.00 0.00 0.00 68 1013.1
20260508000851 71 200 1.7 6.1 0.00 0.00 0.00 68 1013.1
20260508000350 71 250 3.5 8.7 0.00 0.00 0.00 67 1013.1
20260507235851 71 203 2.6 8.7 0.00 0.00 0.00 68 1013.1
20260507235350 71 220 3.5 6.1 0.00 0.00 0.00 68 1012.9
20260507234850 71 230 3.5 6.1 0.00 0.00 0.00 67 1013.2
20260507234350 72 179 4.3 6.1 0.00 0.00 0.00 67 1013.2
20260507233847 72 234 2.6 5.2 0.00 0.00 0.00 67 1013.2
20260507233350 72 234 3.5 6.1 0.00 0.00 0.00 67 1013.3
20260507232850 72 248 3.5 8.7 0.00 0.00 0.00 67 1013.2
20260507232353 72 237 3.5 7.8 0.00 0.00 0.00 67 1013.2
20260507232348 72 264 3.5 8.7 0.00 0.00 0.00 67 1013.1
20260507231354 73 262 4.3 8.7 0.00 0.00 0.00 65 1013.3
20260507231350 72 252 4.3 8.7 0.00 0.00 0.00 66 1013.2
20260507230352 74 247 3.5 6.1 0.00 0.00 0.00 63 1013.2
20260507225848 74 214 2.6 5.2 0.00 0.00 0.00 63 1013.2
20260507225348 74 226 1.7 6.1 0.00 0.00 0.00 63 1013.3
20260507224848 74 209 1.7 6.1 0.00 0.00 0.00 63 1013.3
20260507224348 75 220 3.5 6.1 0.00 0.00 0.00 61 1013.4
20260507223846 74 209 1.7 5.2 0.00 0.00 0.00 62 1013.4
20260507223346 74 196 1.7 6.1 0.00 0.00 0.00 62 1013.4
20260507222847 74 138 3.5 6.1 0.00 0.00 0.00 62 1013.5
20260507222347 74 207 1.7 9.6 0.00 0.00 0.00 62 1013.4
20260507221846 74 243 2.6 9.6 0.00 0.00 0.00 61 1013.5
20260507221351 74 235 3.5 8.7 0.00 0.00 0.00 60 1013.6
20260507221346 74 282 5.2 8.7 0.00 0.00 0.00 61 1013.4
20260507221002 74 252 3.5 8.7 0.00 0.00 0.00 62 1013.6
20260507215846 74 188 3.5 8.7 0.00 0.00 0.00 62 1013.8
20260507215351 74 193 1.7 8.7 0.00 0.00 0.00 63 1013.8
20260507215345 74 254 3.5 8.7 0.00 0.00 0.00 62 1013.8
20260507214351 74 240 4.3 8.7 0.00 0.00 0.00 61 1013.9
20260507214346 74 266 3.5 8.7 0.00 0.00 0.00 62 1013.9
20260507213346 74 207 1.7 8.7 0.00 0.00 0.00 63 1014.0
20260507212845 74 176 3.5 8.7 0.00 0.00 0.00 63 1014.1
20260507212346 74 262 3.5 7.8 0.00 0.00 0.00 62 1014.1
20260507211849 74 203 1.7 9.6 0.00 0.00 0.00 62 1014.2
20260507211845 74 252 3.5 7.8 0.00 0.00 0.00 61 1014.1
20260507210843 74 261 4.3 9.6 0.00 0.00 0.00 61 1014.1
20260507210345 75 238 4.3 8.7 0.00 0.00 0.00 60 1014.1
20260507205845 75 189 2.6 5.2 0.00 0.00 0.00 61 1014.1
20260507205348 74 282 3.5 7.8 0.00 0.00 0.00 61 1014.2
20260507205343 75 206 2.6 7.8 0.00 0.00 0.00 61 1014.1
20260507205001 74 228 3.5 7.8 0.00 0.00 0.00 61 1014.2
20260507203844 74 251 3.5 7.8 0.00 0.00 0.00 61 1014.3
20260507203343 74 183 2.6 7.8 0.00 0.00 0.00 62 1014.3
20260507202843 74 282 4.3 9.6 0.00 0.00 0.00 62 1014.3
20260507202342 74 261 5.2 9.6 0.00 0.00 0.00 62 1014.3
20260507201841 74 223 3.5 8.7 0.00 0.00 0.00 62 1014.3
20260507201343 75 228 3.5 8.7 0.00 0.00 0.00 61 1014.3
20260507200844 74 248 3.5 6.1 0.00 0.00 0.00 62 1014.4
20260507200343 74 235 2.6 7.8 0.00 0.00 0.00 64 1014.5
20260507195843 74 197 1.7 8.7 0.00 0.00 0.00 64 1014.5
20260507195343 74 264 4.3 8.7 0.00 0.00 0.00 64 1014.5
20260507194842 74 271 4.3 8.7 0.00 0.00 0.00 63 1014.5
20260507194343 74 221 2.6 6.1 0.00 0.00 0.00 64 1014.6
20260507193842 74 212 2.6 9.6 0.00 0.00 0.00 64 1014.6
20260507193342 74 182 5.2 9.6 0.00 0.00 0.00 63 1014.6
20260507192841 74 233 3.5 7.8 0.00 0.00 0.00 64 1014.9
20260507192341 74 230 1.7 5.2 0.00 0.00 0.00 64 1014.8
20260507191840 74 221 2.6 6.1 0.00 0.00 0.00 64 1014.9
20260507191339 73 241 3.5 6.1 0.00 0.00 0.00 64 1014.9
20260507190841 73 220 3.5 7.8 0.00 0.00 0.00 64 1014.9
20260507190344 74 231 3.5 7.8 0.00 0.00 0.00 64 1015.0
20260507190340 74 274 4.3 7.8 0.00 0.00 0.00 63 1015.0
20260507185340 74 217 3.5 7.8 0.00 0.00 0.00 63 1015.1
20260507184841 73 168 1.7 7.8 0.00 0.00 0.00 64 1015.1
20260507184339 73 231 2.6 5.2 0.00 0.00 0.00 64 1015.2
20260507183840 73 192 1.7 7.8 0.00 0.00 0.00 64 1015.3
20260507183339 73 227 2.6 7.8 0.00 0.00 0.00 63 1015.4
20260507182838 74 186 2.6 5.2 0.00 0.00 0.00 63 1015.3
20260507182338 73 166 2.6 6.1 0.00 0.00 0.00 65 1015.3
20260507181845 73 200 2.6 4.3 0.00 0.00 0.00 63 1015.3
20260507181839 74 265 3.5 6.1 0.00 0.00 0.00 64 1015.3
20260507180839 73 250 1.7 4.3 0.00 0.00 0.00 64 1015.3
20260507180345 72 206 1.7 5.2 0.00 0.00 0.00 66 1015.4
20260507180338 73 266 2.6 5.2 0.00 0.00 0.00 66 1015.4
20260507175338 72 233 2.6 5.2 0.00 0.00 0.00 65 1015.4
20260507174838 72 247 3.5 5.2 0.00 0.00 0.00 65 1015.4
20260507174338 72 142 1.7 5.2 0.00 0.00 0.00 67 1015.4
20260507173843 71 323 1.7 4.3 0.00 0.00 0.00 68 1015.5
20260507173837 71 230 1.7 5.2 0.00 0.00 0.00 67 1015.4
20260507172843 69 276 1.7 5.2 0.00 0.00 0.00 71 1015.5
20260507172838 71 172 1.7 2.6 0.00 0.00 0.00 67 1015.5
20260507172337 70 172 0.9 3.5 0.00 0.00 0.00 69 1015.5
20260507171335 69 293 2.6 5.2 0.00 0.00 0.00 70 1015.6
20260507170838 69 116 0.0 5.2 0.00 0.00 0.00 72 1015.6
20260507170335 68 116 1.7 5.2 0.00 0.00 0.00 71 1015.6
20260507165836 68 209 0.9 5.2 0.00 0.00 0.00 72 1015.6
20260507165341 66 279 1.7 3.5 0.00 0.00 0.00 77 1015.7
20260507165335 67 257 1.7 5.2 0.00 0.00 0.00 73 1015.6
20260507164835 67 216 0.9 4.3 0.00 0.00 0.00 76 1015.7
20260507164336 67 279 1.7 4.3 0.00 0.00 0.00 76 1015.6
20260507163341 65 264 0.9 4.3 0.00 0.00 0.00 78 1015.9
20260507163335 66 264 1.7 2.6 0.00 0.00 0.00 77 1015.7
20260507162836 65 264 0.9 3.5 0.00 0.00 0.00 78 1015.9
20260507161833 65 275 2.6 4.3 0.00 0.00 0.00 79 1015.8
20260507161334 65 259 0.9 3.5 0.00 0.00 0.00 79 1015.8
20260507160833 64 241 1.7 2.6 0.00 0.00 0.00 79 1015.8
20260507160333 64 251 0.9 4.3 0.00 0.00 0.00 80 1015.9
20260507155834 64 224 1.7 4.3 0.00 0.00 0.00 81 1015.9
20260507155334 63 228 1.7 3.5 0.00 0.00 0.00 82 1016.0
20260507154834 63 227 0.9 3.5 0.00 0.00 0.00 82 1016.0
20260507154334 63 228 0.0 1.7 0.00 0.00 0.00 82 1016.1
20260507153840 62 228 0.9 2.6 0.00 0.00 0.00 83 1016.1
20260507153834 62 228 0.0 2.6 0.00 0.00 0.00 83 1016.0
20260507153450 62 228 0.9 4.3 0.00 0.00 0.00 84 1016.0
20260507152337 61 281 0.9 2.6 0.00 0.00 0.00 84 1016.1
20260507152333 62 293 2.6 4.3 0.00 0.00 0.00 84 1016.1
20260507151833 61 259 1.7 3.5 0.00 0.00 0.00 84 1016.1
20260507150835 61 281 0.0 3.5 0.00 0.00 0.00 85 1016.1
20260507150831 61 281 0.9 2.6 0.00 0.00 0.00 85 1016.1
20260507150449 61 281 1.7 3.5 0.00 0.00 0.00 85 1016.1
20260507145332 61 281 1.7 3.5 0.00 0.00 0.00 86 1016.1
20260507144831 60 281 1.7 3.5 0.00 0.00 0.00 86 1016.0
20260507144331 60 282 0.9 2.6 0.00 0.00 0.00 87 1016.2
20260507143830 60 282 0.9 4.3 0.00 0.00 0.00 87 1016.0
20260507143331 60 282 1.7 4.3 0.00 0.00 0.00 88 1016.0
20260507142831 59 279 1.7 4.3 0.00 0.00 0.00 88 1016.0
20260507142331 59 241 0.0 0.9 0.00 0.00 0.00 88 1015.9
20260507141831 58 241 0.0 0.9 0.00 0.00 0.00 88 1015.9
20260507141331 58 241 0.0 0.9 0.00 0.00 0.00 88 1015.8
20260507140830 58 241 0.0 0.9 0.00 0.00 0.00 89 1015.7
20260507140329 57 241 0.0 0.9 0.00 0.00 0.00 89 1015.6
20260507135831 56 241 0.0 0.9 0.00 0.00 0.00 89 1015.6
20260507135330 56 241 0.0 0.0 0.00 0.00 0.00 88 1015.5
20260507134828 55 241 0.0 0.0 0.00 0.00 0.00 88 1015.5
20260507134330 55 241 0.0 0.0 0.00 0.00 0.00 88 1015.5
20260507133835 55 241 0.0 0.0 0.00 0.00 0.00 88 1015.4
20260507133830 55 241 0.0 0.0 0.00 0.00 0.00 88 1015.4
20260507132832 55 241 0.0 0.0 0.00 0.00 0.00 88 1015.2
20260507132828 55 241 0.0 0.0 0.00 0.00 0.00 88 1015.3
20260507132446 55 241 0.0 0.0 0.00 0.00 0.00 88 1015.3
20260507131328 55 241 0.0 0.0 0.00 0.00 0.00 88 1015.3
20260507130827 55 241 0.0 0.0 0.00 0.00 0.00 88 1015.3
20260507130329 55 241 0.0 0.0 0.00 0.00 0.00 88 1015.2
20260507125826 55 241 0.0 0.0 0.00 0.00 0.00 88 1015.1
20260507125325 55 241 0.0 0.0 0.00 0.00 0.00 88 1015.2
20260507124828 55 241 0.0 0.0 0.00 0.00 0.00 88 1015.1
20260507124328 55 241 0.0 0.0 0.00 0.00 0.00 88 1015.1
20260507123828 55 241 0.0 0.0 0.00 0.00 0.00 88 1015.1
20260507123327 55 241 0.0 0.0 0.00 0.00 0.00 88 1015.0
20260507122827 55 241 0.0 0.0 0.00 0.00 0.00 87 1015.0
20260507122327 55 241 0.0 0.0 0.00 0.00 0.00 87 1015.1
20260507121826 55 241 0.0 0.0 0.00 0.00 0.00 87 1015.1
20260507121326 55 241 0.0 0.0 0.00 0.00 0.00 87 1015.1
20260507120825 55 241 0.0 0.0 0.00 0.00 0.00 87 1015.1
20260507120324 56 241 0.0 0.0 0.00 0.00 0.00 87 1015.2
20260507115824 56 241 0.0 0.0 0.00 0.00 0.00 87 1015.2
20260507115322 56 241 0.0 0.0 0.00 0.00 0.00 87 1015.2
20260507114823 56 241 0.0 0.0 0.00 0.00 0.00 87 1015.2
20260507114328 56 241 0.0 0.0 0.00 0.00 0.00 87 1015.2
20260507114323 56 241 0.0 0.0 0.00 0.00 0.00 87 1015.2
20260507113323 56 241 0.0 0.0 0.00 0.00 0.00 87 1015.2
20260507112821 56 241 0.0 0.0 0.00 0.00 0.00 87 1015.2
20260507112324 56 241 0.0 0.0 0.00 0.00 0.00 87 1015.3
20260507112320 56 241 0.0 0.0 0.00 0.00 0.00 87 1015.1
20260507111931 56 241 0.0 0.0 0.00 0.00 0.00 87 1015.2
20260507111429 56 241 0.0 0.0 0.00 0.00 0.00 87 1015.2
20260507110324 57 241 0.0 0.0 0.00 0.00 0.00 85 1015.2
20260507110319 0 0.0 0.0 0.00 0.00 0.00 1015.2
20260507105318 57 241 0.0 0.0 0.00 0.00 0.00 85 1015.3
20260507104817 57 241 0.0 0.0 0.00 0.00 0.00 85 1015.3
20260507104316 57 241 0.0 0.0 0.00 0.00 0.00 85 1015.4
20260507103816 57 241 0.0 0.0 0.00 0.00 0.00 85 1015.5
20260507103318 57 241 0.0 0.0 0.00 0.00 0.00 85 1015.5
20260507103314 57 241 0.0 0.0 0.00 0.00 0.00 85 1015.5
20260507102312 57 241 0.0 0.0 0.00 0.00 0.00 85 1015.5
20260507101815 57 241 0.0 0.0 0.00 0.00 0.00 85 1015.5
20260507101811 57 241 0.0 0.0 0.00 0.00 0.00 85 1015.4
20260507100809 57 241 0.0 0.0 0.00 0.00 0.00 85 1015.4
20260507100309 57 241 0.0 0.0 0.00 0.00 0.00 85 1015.4
20260507095813 57 241 0.0 0.0 0.00 0.00 0.00 85 1015.5
20260507095809 57 241 0.0 0.0 0.00 0.00 0.00 85 1015.4
20260507094806 0 241 0.0 0.0 0.00 0.00 0.00 1015.5
20260507094307 59 241 0.0 0.0 0.00 0.00 0.00 83 1015.6
20260507093806 59 241 0.0 0.0 0.00 0.00 0.00 83 1015.6
20260507093307 59 241 0.0 0.0 0.00 0.00 0.00 83 1015.7
20260507092804 59 241 0.0 0.0 0.00 0.00 0.00 83 1015.7
20260507092307 59 241 0.0 0.0 0.00 0.00 0.00 83 1015.9
20260507091802 59 241 0.0 0.0 0.00 0.00 0.00 83 1015.9
20260507091301 59 241 0.0 0.0 0.00 0.00 0.00 83 1015.9
20260507090805 59 241 0.0 0.0 0.00 0.00 0.00 83 1016.0
20260507090800 59 241 0.0 0.0 0.00 0.00 0.00 83 1016.0
20260507085758 59 241 0.0 0.0 0.00 0.00 0.00 83 1016.1
20260507085258 59 241 0.0 0.0 0.00 0.00 0.00 83 1016.1
20260507084757 59 241 0.0 0.0 0.00 0.00 0.00 83 1016.3
20260507084257 59 241 0.0 0.0 0.00 0.00 0.00 83 1016.3
20260507083800 59 241 0.0 0.0 0.00 0.00 0.00 83 1016.5
20260507083756 59 241 0.0 0.0 0.00 0.00 0.00 83 1016.3
20260507083256 59 241 0.0 0.0 0.00 0.00 0.00 83 1016.4
20260507082256 59 241 0.0 0.0 0.00 0.00 0.00 83 1016.4
20260507081756 59 241 0.0 0.0 0.00 0.00 0.00 83 1016.4
20260507081256 59 241 0.0 0.0 0.00 0.00 0.00 83 1016.5
20260507080755 0 241 0.0 0.0 0.00 0.00 0.00 1016.4
20260507080254 0 0.0 0.0 0.00 0.00 0.00 1016.4
20260507075753 0 0.0 0.0 0.00 0.00 0.00 1016.5
20260507075253 0 0.0 0.0 0.00 0.00 0.00 1016.5
20260507074755 0 0.0 0.0 0.00 0.00 0.00 1016.4
20260507074751 0 0.0 0.0 0.00 0.00 0.00 1016.4
20260507073750 0 0.0 0.0 0.00 0.00 0.00 1016.5
20260507073248 0 0.0 0.0 0.00 0.00 0.00 1016.4
20260507072747 62 241 0.0 0.0 0.00 0.00 0.00 81 1016.4
20260507072246 62 241 0.0 0.0 0.00 0.00 0.00 81 1016.5
20260507071745 62 241 0.0 0.0 0.00 0.00 0.00 81 1016.4
20260507071244 62 241 0.0 0.0 0.00 0.00 0.00 81 1016.6
20260507070743 62 241 0.0 0.0 0.00 0.00 0.00 81 1016.6
20260507070243 62 241 0.0 0.0 0.00 0.00 0.00 81 1016.5
20260507065742 62 241 0.0 0.0 0.00 0.00 0.00 81 1016.6
20260507065240 62 241 0.0 0.0 0.00 0.00 0.00 81 1016.7
20260507064740 62 241 0.0 0.0 0.00 0.00 0.00 81 1016.7
20260507064239 62 241 0.0 0.0 0.00 0.00 0.00 81 1016.7
20260507063738 62 241 0.0 0.0 0.00 0.00 0.00 81 1016.7
20260507063242 62 241 0.9 2.6 0.00 0.00 0.00 81 1016.7
20260507063238 62 241 0.0 2.6 0.00 0.00 0.00 81 1016.7
20260507062236 62 241 0.9 1.7 0.00 0.00 0.00 81 1016.7
20260507061736 62 241 0.0 1.7 0.00 0.00 0.00 80 1016.8
20260507061241 62 241 1.7 1.7 0.00 0.00 0.00 80 1016.7
20260507061236 62 241 0.9 1.7 0.00 0.00 0.00 80 1016.8
20260507060851 62 241 0.0 0.0 0.00 0.00 0.00 75 1016.7
20260507060345 62 241 0.0 0.0 0.00 0.00 0.00 75 1016.7
20260507055235 62 241 0.0 0.0 0.00 0.00 0.00 75 1016.8
20260507054733 62 241 0.0 0.0 0.00 0.00 0.00 75 1016.8
20260507054231 62 241 0.0 0.0 0.00 0.00 0.00 75 1016.8
20260507053730 62 241 0.0 0.0 0.00 0.00 0.00 75 1016.8
20260507053230 62 241 0.0 0.9 0.00 0.00 0.00 75 1016.7
20260507052730 62 241 0.0 1.7 0.00 0.00 0.00 74 1016.7
20260507052229 62 241 0.9 1.7 0.00 0.00 0.00 74 1016.7
20260507051730 62 241 0.9 1.7 0.00 0.00 0.00 74 1016.6
20260507051230 62 241 0.9 2.6 0.00 0.00 0.00 75 1016.6
20260507050728 62 241 1.7 2.6 0.00 0.00 0.00 75 1016.6
20260507050227 62 241 0.9 2.6 0.00 0.00 0.00 77 1016.5
20260507045728 62 241 0.0 0.0 0.00 0.00 0.00 78 1016.6
20260507045233 63 241 0.0 0.0 0.00 0.00 0.00 78 1016.5
20260507045229 62 241 0.0 0.0 0.00 0.00 0.00 78 1016.5
20260507044227 63 241 0.0 0.0 0.00 0.00 0.00 78 1016.5
20260507043726 63 241 0.0 0.0 0.00 0.00 0.00 78 1016.6
20260507043228 63 241 0.0 0.0 0.00 0.00 0.00 77 1016.6
20260507042728 63 241 0.0 0.0 0.00 0.00 0.00 77 1016.5
20260507042347 63 241 0.0 0.9 0.00 0.00 0.00 77 1016.5
20260507042232 63 241 0.0 0.0 0.00 0.00 0.00 77 1016.5
20260507042227 63 241 0.0 0.0 0.00 0.00 0.00 77 1016.5
20260507040728 63 241 0.0 0.9 0.00 0.00 0.00 76 1016.5
20260507040226 64 241 0.0 1.7 0.00 0.00 0.00 76 1016.4
20260507035730 64 241 0.9 2.6 0.00 0.00 0.00 75 1016.4
20260507035726 64 241 0.0 2.6 0.00 0.00 0.00 76 1016.4
20260507034727 64 241 0.9 2.6 0.00 0.00 0.00 76 1016.2
20260507034225 64 241 0.0 0.0 0.00 0.00 0.00 75 1016.1
20260507033729 64 241 0.0 3.5 0.00 0.00 0.00 75 1016.1
20260507033225 64 241 0.0 3.5 0.00 0.00 0.00 75 1016.1
20260507032725 64 240 0.9 1.7 0.00 0.00 0.00 74 1016.1
20260507032226 65 240 0.0 0.9 0.00 0.00 0.00 74 1016.1
20260507031726 65 240 0.0 1.7 0.00 0.00 0.00 74 1015.9
20260507031224 65 240 1.7 1.7 0.00 0.00 0.00 74 1015.9
20260507030723 65 240 1.7 1.7 0.00 0.00 0.00 74 1015.8
20260507030222 65 240 0.9 3.5 0.00 0.00 0.00 73 1015.8
20260507025723 65 240 0.9 4.3 0.00 0.00 0.00 73 1015.8
20260507025229 65 283 2.6 3.5 0.00 0.00 0.00 72 1015.6
20260507025224 65 240 2.6 4.3 0.00 0.00 0.00 72 1015.8
20260507024221 65 221 1.7 4.3 0.00 0.00 0.00 71 1015.6
20260507023721 65 281 2.6 4.3 0.00 0.00 0.00 70 1015.6
20260507023222 66 254 0.0 6.1 0.00 0.00 0.00 69 1015.5
20260507022720 66 228 1.7 6.1 0.00 0.00 0.00 68 1015.5
20260507022221 66 223 3.5 5.2 0.00 0.00 0.00 68 1015.4
20260507021722 66 283 3.5 5.2 0.00 0.00 0.00 69 1015.4
20260507021221 67 269 3.5 5.2 0.00 0.00 0.00 69 1015.4
20260507020722 67 241 2.6 5.2 0.00 0.00 0.00 69 1015.4
20260507020221 67 223 2.6 5.2 0.00 0.00 0.00 68 1015.3
20260507015722 67 255 2.6 9.6 0.00 0.00 0.00 68 1015.3
20260507015220 68 217 2.6 9.6 0.00 0.00 0.00 67 1015.3
20260507014721 68 241 1.7 6.1 0.00 0.00 0.00 67 1015.3
20260507014221 68 255 2.6 6.1 0.00 0.00 0.00 67 1015.2
20260507013721 68 245 2.6 5.2 0.00 0.00 0.00 66 1015.3
20260507013219 68 257 2.6 7.8 0.00 0.00 0.00 65 1015.2
20260507012720 69 216 5.2 7.8 0.00 0.00 0.00 65 1015.2
20260507012223 69 244 3.5 6.1 0.00 0.00 0.00 64 1015.0
20260507012217 69 220 3.5 6.1 0.00 0.00 0.00 65 1015.1
20260507011220 69 275 1.7 7.8 0.00 0.00 0.00 64 1015.0
20260507010719 69 265 5.2 7.8 0.00 0.00 0.00 63 1015.0
20260507010217 69 200 2.6 6.1 0.00 0.00 0.00 64 1015.0
20260507005719 70 290 4.3 7.8 0.00 0.00 0.00 64 1015.0
20260507005220 70 293 3.5 7.8 0.00 0.00 0.00 62 1015.0
20260507004719 70 224 1.7 8.7 0.00 0.00 0.00 62 1015.0
20260507004218 70 209 2.6 8.7 0.00 0.00 0.00 62 1015.0
20260507003724 71 258 3.5 8.7 0.00 0.00 0.00 61 1015.0
20260507003718 70 264 5.2 8.7 0.00 0.00 0.00 62 1015.0